Regional Weather Roundup
Issued by NWS

Home | Current Version | Previous Version | Graphics & Text | Print | Product List | Glossary Off
Versions: 1 2 3 4 5 6 7 8 9 10 11 12 13 14 15 16 17 18 19 20 21 22 23 24 25 26 27 28 29 30 31 32 33 34 35 36 37 38 39 40 41 42 43 44 45 46 47 48 49 50

000
ASUS43 KTOP 220659
RWRKS

WEATHER ROUNDUP FOR KANSAS
NATIONAL WEATHER SERVICE GOODLAND KS
200 AM CDT MON SEP 22 2014

NOTE:  "FAIR" INDICATES FEW OR NO CLOUDS BELOW 12,000 FEET WITH NO
SIGNIFICANT WEATHER AND/OR OBSTRUCTIONS TO VISIBILITY.

KSZ001>006-013>018-027>032-041>047-220800-
NORTHWEST KANSAS

CITY           SKY/WX    TMP DP  RH WIND       PRES   REMARKS
GOODLAND       CLOUDY    60  41  49 SE7       30.32S
HILL CITY      MOCLDY    54  43  66 E3        30.30F
RUSSELL        PTCLDY    52  45  77 VRB3      30.28S
$$

KSZ061>065-074>080-084>089-220800-
SOUTHWEST KANSAS

CITY           SKY/WX    TMP DP  RH WIND       PRES   REMARKS
DODGE CITY     PTCLDY    57  42  57 E7        30.31R
ELKHART          N/A     54  45  72 SE7         N/A
GARDEN CITY    PTCLDY    55  43  63 S3        30.31R
GREAT BEND     CLEAR     54  45  71 CALM      30.30S
LIBERAL        PTCLDY    64  43  45 E7        30.32S
$$

KSZ066>073-081>083-090>101-220800-
SOUTHEAST KANSAS

CITY           SKY/WX    TMP DP  RH WIND       PRES   REMARKS
CHANUTE        CLEAR     54  50  86 N5        30.26R
HUTCHINSON     CLEAR     58  46  64 E8        30.28S
NEWTON         CLEAR     57  45  62 NE5       30.30S
PARSONS        CLEAR     54  51  90 CALM      30.26R
WICHITA INTL   PTCLDY    63  46  54 NE9       30.26S
WICHITA JABRA  CLEAR     54  46  74 NE3       30.27S
WINFIELD       CLEAR     60  48  64 E6        30.27R
$$

KSZ007>012-019>026-033>040-048>060-102>105-220800-
NORTHEAST KANSAS

CITY           SKY/WX    TMP DP  RH WIND       PRES   REMARKS
CONCORDIA      CLEAR     53  47  79 CALM      30.30S
EMPORIA        CLEAR     54  50  86 NW3       30.28R
LAWRENCE       CLEAR     49  47  93 NW5       30.27S
MANHATTAN      CLEAR     49  47  93 CALM      30.29R
OLATHE IND     CLEAR     53  49  86 N3        30.27R
OLATHE EXE     CLEAR     56  49  77 N5        30.26R
SALINA         CLEAR     59  46  62 CALM      30.29S
TOPEKA BILLARD CLEAR     55  50  83 NE6       30.27S
TOPEKA FORBES  CLEAR     50  47  89 N5        30.27R
$$



USA.gov is the U.S. government's official web portal to all federal, state and local government web resources and services.